DW6839 Weather Reports


time (UTC)temp
C
wind
direction
speed
KPH
gust
KPH
rain 1hr
cm
rain 24hr
cm
rain mn
cm
humidity
%
barometer
mb
20210923174015 26 128 3.2 17.7 0.00 0.03 0.03 76 1018.2
20210923173015 27 143 3.2 14.5 0.00 0.03 0.03 75 1018.2
20210923172015 27 123 1.6 16.1 0.00 0.03 0.03 76 1018.3
20210923171015 26 140 1.6 19.3 0.03 0.03 0.03 77 1018.4
20210923170015 26 113 0.0 12.9 0.03 0.03 0.03 79 1018.5
20210923165015 26 113 0.0 19.3 0.03 0.03 0.03 78 1018.5
20210923164015 26 161 1.6 17.7 0.03 0.03 0.03 80 1018.6
20210923163015 26 154 1.6 12.9 0.03 0.03 0.03 82 1018.6
20210923162015 26 120 0.0 12.9 0.03 0.03 0.03 85 1018.5
20210923161015 26 145 0.0 6.4 0.00 0.00 0.00 80 1018.5
20210923160015 26 0.0 4.8 0.00 0.00 0.00 79 1018.5
20210923155015 26 172 1.6 12.9 0.00 0.00 0.00 82 1018.5
20210923154015 25 127 0.0 8.0 0.00 0.00 0.00 83 1018.6
20210923153015 25 217 0.0 14.5 0.00 0.00 0.00 83 1018.9
20210923152015 25 129 1.6 12.9 0.00 0.00 0.00 82 1018.9
20210923151015 25 129 1.6 11.3 0.00 0.00 0.00 82 1018.9
20210923150015 24 128 0.0 4.8 0.00 0.00 0.00 86 1019.0
20210923145015 23 119 0.0 1.6 0.00 0.00 0.00 88 1019.0
20210923144015 23 160 0.0 4.8 0.00 0.00 0.00 89 1018.9
20210923143015 23 160 0.0 6.4 0.00 0.00 0.00 89 1019.0
20210923142015 23 177 1.6 9.7 0.00 0.00 0.00 90 1019.0
20210923141015 23 138 0.0 14.5 0.00 0.00 0.00 91 1019.0
20210923140015 22 227 0.0 3.2 0.00 0.00 0.00 92 1018.9
20210923135015 22 155 0.0 8.0 0.00 0.00 0.00 94 1018.8
20210923134015 22 233 0.0 4.8 0.00 0.00 0.00 94 1018.7
20210923133015 21 123 0.0 9.7 0.00 0.00 0.00 95 1018.7
20210923132015 21 0.0 1.6 0.00 0.00 0.00 96 1018.7
20210923131015 21 0.0 0.0 0.00 0.00 0.00 97 1018.8
20210923130015 21 0.0 0.0 0.00 0.00 0.00 97 1018.7
20210923125015 21 153 0.0 1.6 0.00 0.00 0.00 97 1018.8
20210923124015 21 0.0 0.0 0.00 0.00 0.00 97 1018.8
20210923123015 21 150 0.0 3.2 0.00 0.00 0.00 97 1018.8
20210923122015 20 0.0 4.8 0.00 0.00 0.00 97 1018.8
20210923121015 20 128 0.0 4.8 0.00 0.00 0.00 97 1018.8
20210923120015 20 0.0 0.0 0.00 0.00 0.00 97 1018.8
20210923115015 20 0.0 0.0 0.00 0.00 0.00 97 1018.8
20210923114015 20 0.0 0.0 0.00 0.00 0.00 97 1018.9
20210923113015 20 0.0 1.6 0.00 0.00 0.00 97 1018.8
20210923112015 20 0.0 0.0 0.00 0.00 0.00 97 1018.8
20210923111015 20 127 0.0 4.8 0.00 0.00 0.00 97 1018.8
20210923110015 20 122 0.0 1.6 0.00 0.00 0.00 97 1018.8
20210923105015 20 0.0 4.8 0.00 0.00 0.00 97 1018.9
20210923104015 20 0.0 1.6 0.00 0.00 0.00 97 1018.9
20210923103015 20 137 0.0 3.2 0.00 0.00 0.00 97 1018.8
20210923102015 20 122 0.0 6.4 0.00 0.00 0.00 97 1018.8
20210923101015 19 0.0 0.0 0.00 0.00 0.00 97 1018.7
20210923100015 19 0.0 3.2 0.00 0.00 0.00 97 1018.7
20210923095015 19 0.0 3.2 0.00 0.00 0.00 97 1018.7
20210923094015 19 0.0 0.0 0.00 0.00 0.00 97 1018.7
20210923093014 19 178 0.0 1.6 0.00 0.00 0.00 97 1018.7
20210923092015 19 178 0.0 3.2 0.00 0.00 0.00 97 1018.6
20210923091015 19 0.0 0.0 0.00 0.00 0.00 97 1018.6
20210923090015 19 0.0 0.0 0.00 0.00 0.00 97 1018.7
20210923085015 19 178 0.0 3.2 0.00 0.00 0.00 97 1018.8
20210923084015 19 0.0 0.0 0.00 0.00 0.00 97 1018.8
20210923083015 19 0.0 0.0 0.00 0.00 0.00 97 1018.8
20210923082015 19 0.0 0.0 0.00 0.00 0.00 96 1018.8
20210923081015 18 0.0 0.0 0.00 0.00 0.00 96 1018.9
20210923080015 18 0.0 0.0 0.00 0.00 0.00 96 1019.0
20210923075015 18 0.0 1.6 0.00 0.00 0.00 96 1018.9
20210923074015 18 0.0 0.0 0.00 0.00 0.00 95 1018.9
20210923073015 18 0.0 0.0 0.00 0.00 0.00 95 1018.9
20210923072015 19 0.0 0.0 0.00 0.00 0.00 95 1019.1
20210923071015 19 0.0 0.0 0.00 0.00 0.00 95 1019.1
20210923070014 19 0.0 0.0 0.00 0.00 0.00 95 1019.3
20210923065015 19 0.0 0.0 0.00 0.00 0.00 94 1019.4
20210923064015 20 0.0 0.0 0.00 0.00 0.00 95 1019.3
20210923063017 20 0.0 0.0 0.00 0.00 0.00 94 1019.2
20210923062017 20 0.0 0.0 0.00 0.00 0.00 94 1019.2
20210923061017 20 0.0 0.0 0.00 0.00 0.00 94 1019.3
20210923060016 20 0.0 0.0 0.00 0.00 0.00 94 1019.4
20210923055017 20 0.0 0.0 0.00 0.00 0.00 94 1019.5
20210923054017 20 0.0 0.0 0.00 0.00 0.00 94 1019.6
20210923053017 21 0.0 0.0 0.00 0.00 0.00 94 1019.6
20210923052017 21 0.0 0.0 0.00 0.00 0.00 94 1019.7
20210923051016 21 0.0 4.8 0.00 0.00 0.00 94 1019.7
20210923050017 21 0.0 0.0 0.00 0.00 0.00 94 1019.7
20210923045016 21 140 0.0 1.6 0.00 0.00 0.00 94 1019.7
20210923044019 21 130 0.0 1.6 0.00 0.00 0.00 94 1019.7
20210923043017 21 0.0 0.0 0.00 0.00 0.00 94 1019.7
20210923042016 21 0.0 1.6 0.00 0.00 0.00 93 1019.7
20210923041016 21 0.0 6.4 0.00 0.00 0.00 93 1019.7
20210923040017 21 109 0.0 11.3 0.00 0.00 0.00 93 1019.8
20210923035015 21 114 0.0 3.2 0.00 0.00 0.00 93 1019.8
20210923034015 21 143 1.6 14.5 0.00 0.00 0.00 93 1019.6
20210923033015 21 137 0.0 8.0 0.00 0.00 0.00 93 1019.6
20210923032015 21 130 1.6 14.5 0.00 0.00 0.00 93 1019.6
20210923031015 21 0.0 11.3 0.00 0.00 0.00 93 1019.7
20210923030015 21 160 0.0 3.2 0.00 0.00 0.00 93 1019.7
20210923025015 21 123 0.0 3.2 0.00 0.00 0.00 93 1019.7
20210923024015 21 132 0.0 12.9 0.00 0.00 0.00 93 1019.6
20210923023015 21 144 0.0 9.7 0.00 0.00 0.00 92 1019.6
20210923022015 21 169 0.0 4.8 0.00 0.00 0.00 92 1019.6
20210923021015 22 161 0.0 1.6 0.00 0.00 0.00 92 1019.6
20210923020015 22 150 0.0 1.6 0.00 0.00 0.00 92 1019.5
20210923015015 22 137 0.0 11.3 0.00 0.00 0.00 91 1019.6
20210923014015 22 171 0.0 1.6 0.00 0.00 0.00 91 1019.6
20210923013015 22 0.0 1.6 0.00 0.00 0.00 91 1019.5
20210923012015 22 112 0.0 4.8 0.00 0.00 0.00 91 1019.4
20210923011015 22 126 1.6 9.7 0.00 0.00 0.00 91 1019.4
20210923010015 22 209 0.0 4.8 0.00 0.00 0.00 91 1019.3
20210923005015 22 140 0.0 11.3 0.00 0.00 0.00 91 1019.3
20210923004015 22 183 1.6 11.3 0.00 0.00 0.00 91 1019.3
20210923003015 22 138 0.0 8.0 0.00 0.00 0.00 91 1019.3
20210923002015 22 157 0.0 8.0 0.00 0.00 0.00 91 1019.3
20210923001015 22 197 1.6 8.0 0.00 0.00 0.00 91 1019.2
20210923000015 22 125 0.0 6.4 0.00 0.00 0.00 91 1019.2
20210922235015 22 139 1.6 11.3 0.00 0.00 0.00 92 1019.0
20210922234015 22 82 0.0 8.0 0.00 0.00 0.00 92 1018.9
20210922233015 22 133 0.0 11.3 0.00 0.00 0.00 92 1019.0
20210922232015 22 136 0.0 11.3 0.00 0.00 0.00 92 1019.0
20210922231015 22 153 0.0 8.0 0.00 0.00 0.00 93 1018.9
20210922230015 22 177 0.0 8.0 0.00 0.00 0.00 93 1018.8
20210922225015 22 157 1.6 12.9 0.00 0.00 0.00 94 1018.7
20210922224015 22 188 0.0 9.7 0.00 0.00 0.00 94 1018.7
20210922223016 22 0.0 8.0 0.00 0.00 0.00 94 1018.7
20210922222015 22 113 0.0 9.7 0.00 0.00 0.00 95 1018.7
20210922221015 22 0.0 11.3 0.00 0.00 0.00 95 1018.8
20210922220015 22 0.0 6.4 0.00 0.00 0.00 94 1018.8
20210922215015 22 148 0.0 6.4 0.00 0.00 0.00 95 1018.9
20210922213515 22 123 0.0 9.7 0.00 0.00 0.00 95 1018.9
20210922212515 22 123 0.0 6.4 0.00 0.00 0.00 94 1018.9
20210922211515 22 138 0.0 1.6 0.00 0.00 0.00 94 1018.9
20210922210515 22 146 0.0 1.6 0.00 0.00 0.00 93 1019.1
20210922205515 22 167 0.0 1.6 0.00 0.00 0.00 93 1019.1
20210922204515 22 0.0 4.8 0.00 0.00 0.00 92 1019.1
20210922203515 23 129 0.0 8.0 0.00 0.00 0.00 91 1019.2
20210922202515 23 135 0.0 4.8 0.00 0.00 0.00 90 1019.2
20210922201515 23 183 0.0 11.3 0.00 0.00 0.00 89 1019.3
20210922200515 23 235 0.0 4.8 0.00 0.00 0.00 89 1019.3
20210922195516 23 92 0.0 4.8 0.00 0.00 0.00 89 1019.4
20210922194515 23 118 0.0 9.7 0.00 0.00 0.00 88 1019.4
20210922193515 23 126 1.6 14.5 0.00 0.00 0.00 88 1019.5
20210922192515 23 121 0.0 20.9 0.00 0.00 0.00 88 1019.6
20210922191515 23 133 0.0 11.3 0.00 0.00 0.00 88 1019.9
20210922190515 23 127 0.0 12.9 0.00 0.00 0.00 86 1019.9
20210922185515 23 147 3.2 19.3 0.00 0.00 0.00 85 1020.0
20210922184515 23 152 1.6 11.3 0.00 0.00 0.00 84 1020.0
20210922183515 23 241 1.6 12.9 0.00 0.00 0.00 85 1020.1
20210922182515 24 224 0.0 11.3 0.00 0.00 0.00 84 1020.2
20210922181515 24 149 0.0 11.3 0.00 0.00 0.00 83 1020.3
20210922180515 24 149 1.6 8.0 0.00 0.00 0.00 82 1020.4
20210922175516 24 146 0.0 12.9 0.00 0.00 0.00 81 1020.5